Regional Weather Roundup
Issued by NWS Jackson, KY

Home | Current Version | Previous Version | Graphics & Text | Print | Product List | Glossary On
Versions: 1 2 3 4 5 6 7 8 9 10 11 12 13 14 15 16 17 18 19 20 21 22 23 24 25 26 27 28 29 30 31 32 33 34 35 36 37 38 39 40 41 42 43 44 45 46 47 48 49 50
000
ASUS43 KJKL 071910
RWRJKL

EAST KENTUCKY HOURLY WEATHER ROUNDUP
NATIONAL WEATHER SERVICE JACKSON KY
200 PM EST WED DEC 07 2016

NOTE: "FAIR" INDICATES FEW OR NO CLOUDS BELOW 12,000 FEET WITH
NO SIGNIFICANT WEATHER AND/OR OBSTRUCTIONS TO VISIBILITY.

* THESE REPORTS ARE NOT UNDER NWS QUALITY CONTROL AND MAY NOT
  REPORT WEATHER SUCH AS PRECIPITATION AND FOG.

KYZ079-080-083-085-087-088-110-112-115-119-120-072000
...EASTERN KENTUCKY...

CITY           SKY/WX    TMP DP  RH WIND       PRES   REMARKS
JACKSON        SUNNY     45  27  49 CALM      30.09F
LONDON         SUNNY     44  30  57 CALM      30.09F
SOMERSET*      MOSUNNY   45  32  61 N7        30.11F
MONTICELLO*    CLOUDY    45  32  60 N14       30.12F
WILLIAMSBURG*  CLOUDY    41  36  81 CALM      30.09F
MIDDLESBORO*   MOSUNNY   47  37  67 N7        30.07F
HARLAN APT*    CLEAR     46  32  57 N5        30.05F
PIKE CO APT*     N/A     39  31  73 CALM      30.09F
BIG SANDY APT* PTCLDY    44  32  63 SE5       30.10F
MOREHEAD APT*  PTCLDY    45  25  45 VRB3      30.12F
ASHLAND*       SUNNY     46  28  49 CALM      30.11F
$$

KYZ035-036-041-042-044-050-067-078-099-072000
...CENTRAL KENTUCKY...

CITY           SKY/WX    TMP DP  RH WIND       PRES   REMARKS
MT STERLING*   PTSUNNY   43  23  45 N3        30.13F
FLEMING/MASON* MOSUNNY   42  25  50 W5        30.12F
DANVILLE*      CLOUDY    43  27  52 N7        30.12F
LEXINGTON      CLOUDY    43  21  41 SW3       30.12F
FRANKFORT      PTSUNNY   43  24  47 NW3       30.12F
LOUISVILLE     CLOUDY    42  21  43 NW5       30.15F
LEBANON*       CLOUDY    45  27  49 NW3       30.12F
GLASGOW*       SUNNY     45  29  53 N7        30.12F
BOWLING GREEN  MOSUNNY   48  28  46 VRB5      30.13F
$$

KYZ091>093-OHZ055-061-077-WVZ005-015-034-035-042-072000
...SOUTHERN OHIO/WEST VIRGINIA...

CITY           SKY/WX    TMP DP  RH WIND       PRES   REMARKS
COVINGTON      CLOUDY    39  22  50 W10       30.12S WCI  32
COLUMBUS       PTSUNNY   37  23  56 SW10      30.10F WCI  30
DAYTON         CLOUDY    36  22  56 W9        30.11F WCI  29
WILMINGTON     CLOUDY    37  22  54 W10       30.10F WCI  30
HUNTINGTON     SUNNY     46  21  37 CALM      30.10F
CHARLESTON     MOSUNNY   44  28  53 W6        30.10F
PINEVILLE*     SUNNY     47  30  53 MISG      30.11F
BECKLEY        SUNNY     44  24  45 NW5       30.05F
BLUEFIELD      SUNNY     41  29  62 VRB3      30.04F
LOGAN CO APT*    N/A     43  30  61 CALM      30.08F
$$

VAZ002-007-008-TNZ017-027-036-066-071-072000
...SOUTHWEST VIRGINIA/EAST TENNESSEE...

CITY           SKY/WX    TMP DP  RH WIND       PRES   REMARKS
WISE*          MOSUNNY   41  32  70 N8        30.05F
ABINGDON*      SUNNY     52  34  51 E6        30.02F
BRISTOL        MOSUNNY   52  34  50 NW6       30.02F
MORRISTOWN*    CLEAR     52  34  50 SE6       30.02S
SEVIERVILLE*   CLEAR     52  37  58 SE3       30.02F
KNOXVILLE      MOSUNNY   54  38  54 NE7       30.02F
OAK RIDGE      SUNNY     55  36  48 VRB5      30.04F
CROSSVILLE     CLOUDY    41  34  76 N8        30.06S
NASHVILLE      PTSUNNY   48  32  53 VRB3      30.12F
$$

...KEY TO REMARKS...
VSB - VISIBILITY IN MILES
WCI - WIND CHILL INDEX
HX  - HEAT INDEX

$$



USA.gov is the U.S. government's official web portal to all federal, state and local government web resources and services.